This is the latest recevied weather packets stored in our database for station/object WD5U-1. If no packets are shown the sender has not sent any weather packets the latest 10 day(s).
| Time | Temp. | Humidity | Pressure | Rain* | Wind** | Luminosity | Snow |
|---|---|---|---|---|---|---|---|
| 1777683165 | 16.67° C | 79% | 1018.3 hPa | 0 mm | - | - | - |
| 1777683024 | 16.67° C | 78% | 1018.2 hPa | 0 mm | - | - | - |
| 1777682327 | 16.67° C | 78% | 1018.2 hPa | 0 mm | - | - | - |
| 1777681465 | 17.22° C | 77% | 1018 hPa | 0 mm | - | - | - |
| 1777680382 | 17.22° C | 78% | 1017.6 hPa | 0 mm | - | - | - |
| 1777679896 | 17.22° C | 75% | 1017.5 hPa | 0 mm | - | - | - |
| 1777679663 | 17.22° C | 77% | 1017.4 hPa | 0 mm | - | - | - |
| 1777679301 | 17.22° C | 75% | 1017.5 hPa | 0 mm | - | - | - |
| 1777679177 | 17.22° C | 74% | 1017.4 hPa | 0 mm | - | - | - |
| 1777678944 | 17.22° C | 75% | 1017.5 hPa | 0 mm | - | - | - |
| 1777678823 | 17.22° C | 74% | 1017.4 hPa | 0 mm | - | - | - |
| 1777677740 | 17.78° C | 70% | 1017.2 hPa | 0 mm | - | - | - |
| 1777677497 | 17.78° C | 69% | 1017.2 hPa | 0 mm | - | - | - |
| 1777676677 | 18.89° C | 66% | 1017.1 hPa | 0 mm | - | - | - |
| 1777675938 | 18.33° C | 64% | 1017.2 hPa | 0 mm | - | - | - |
| 1777675462 | 18.89° C | 62% | 1017.1 hPa | 0 mm | - | - | - |
| 1777675098 | 18.89° C | 67% | 1017.1 hPa | 0 mm | - | - | - |
| 1777674502 | 18.89° C | 63% | 1017.1 hPa | 0 mm | - | - | - |
| 1777671859 | 18.33° C | 63% | 1017 hPa | 0 mm | - | - | - |
| 1777670300 | 18.89° C | 60% | 1017.4 hPa | 0 mm | - | - | - |
| 1777667941 | 18.33° C | 62% | 1018.1 hPa | 0 mm | - | - | - |
| 1777667658 | 18.33° C | 63% | 1018.1 hPa | 0 mm | - | - | - |
| 1777666818 | 18.33° C | 63% | 1018.3 hPa | 0 mm | - | - | - |
| 1777666696 | 18.33° C | 62% | 1018.2 hPa | 0 mm | - | - | - |
| 1777666464 | 18.33° C | 61% | 1018.1 hPa | 0 mm | - | - | - |
* Rain latest hour (hover to see other rain measurements)
** Current wind speed in m/s (hover to see current wind gust speed)